Regional Weather Roundup
Issued by NWS Little Rock, AR

Home | Current Version | Previous Version | Graphics & Text | Print | Product List | Glossary On
Versions: 1 2 3 4 5 6 7 8 9 10 11 12 13 14 15 16 17 18 19 20 21 22 23 24 25 26 27 28 29 30 31 32 33 34 35 36 37 38 39 40 41 42 43 44 45 46 47 48 49 50
000
ASUS44 KLZK 251905
RWRLZK

WEATHER ROUNDUP FOR ARKANSAS
NATIONAL WEATHER SERVICE LITTLE ROCK AR
200 PM CDT MON MAY 25 2015

NOTE: "FAIR" INDICATES FEW OR NO CLOUDS BELOW 12,000 FEET WITH NO
SIGNIFICANT WEATHER AND/OR OBSTRUCTIONS TO VISIBILITY.

ARZ001-003-010-029-252000-
NORTHWEST ARKANSAS

CITY           SKY/WX    TMP DP  RH WIND       PRES   REMARKS
FAYETTEVILLE   MOSUNNY   78  66  66 S17G26    29.97F
FORT SMITH     PTSUNNY   80  67  64 SE9       29.95F
HARRISON       PTSUNNY   78  66  66 S17G23    30.01R
BENTONVILLE    PTSUNNY   79  64  61 S14G21    29.97F
ROGERS         CLOUDY    78  65  63 S14G20    29.97F
SILOAM SPGS    PTSUNNY   79  64  61 S15G21    29.97F
HIGHFILL       MOSUNNY   80  67  64 S16       29.96F
SPRINGDALE     PTSUNNY   79  64  61 S15G21    29.99F
$$

ARZ004-005-016-252000-
NORTH CENTRAL ARKANSAS

CITY           SKY/WX    TMP DP  RH WIND       PRES   REMARKS
BATESVILLE     MOSUNNY   81  66  61 SE9G17    30.03S
FLIPPIN        CLOUDY    79  66  65 S9G16     29.98S
MTN HOME       CLOUDY    79  67  66 S12       30.00S
$$

ARZ040-041-252000-
WEST CENTRAL ARKANSAS

CITY           SKY/WX    TMP DP  RH WIND       PRES   REMARKS
MENA           CLOUDY    79  70  73 SE7       30.00F
MOUNT IDA      MOSUNNY   79  68  69 VRB7      29.98F
$$

ARZ009-017-025-026-028-252000-
NORTHEAST ARKANSAS

CITY           SKY/WX    TMP DP  RH WIND       PRES   REMARKS
CORNING          N/A     81  70  69 S12       30.04F
JONESBORO      CLOUDY    76  70  82 S10       30.05F
NEWPORT        CLOUDY    79  69  71 S13       30.05S
WALNUT RIDGE   PTSUNNY   79  70  73 S15       30.03F
BLYTHEVILLE    CLOUDY    77  71  82 SE10      30.06F
$$

ARZ022-023-033-042-044-252000-
CENTRAL ARKANSAS

CITY           SKY/WX    TMP DP  RH WIND       PRES   REMARKS
LITTLE ROCK    PTSUNNY   82  68  62 S10       30.02F HX  85
N LITTLE ROCK  PTSUNNY   78  70  76 S8        30.02F
SEARCY         CLOUDY    79  69  71 S13       30.05S
HOT SPRINGS    PTSUNNY   77  68  73 VRB3      30.02F
RUSSELLVILLE   CLOUDY    76  68  76 SE7       30.01S
CLINTON        PTSUNNY   77  68  73 S8        30.04R
$$

ARZ036-252000-
EAST ARKANSAS

CITY           SKY/WX    TMP DP  RH WIND       PRES   REMARKS
WEST MEMPHIS   PTSUNNY   78  71  79 S9        30.05F
$$

ARZ050-053-066-070-073-252000-
SOUTHWEST ARKANSAS

CITY           SKY/WX    TMP DP  RH WIND       PRES   REMARKS
ARKADELPHIA    FAIR      84  72  67 SE6       30.01F HX  89
CAMDEN         MOSUNNY   82  68  61 NE7       30.01F HX  85
TEXARKANA      LGT RAIN  80  72  76 SE12      29.98F
EL DORADO      MOSUNNY   84  69  60 VRB6      30.01F HX  88
DE QUEEN       MOSUNNY   82  70  66 S10       29.95F HX  86
$$

ARZ056-057-069-252000-
SOUTHEAST ARKANSAS

CITY           SKY/WX    TMP DP  RH WIND       PRES   REMARKS
PINE BLUFF     MOSUNNY   81  69  67 S9        30.03F
STUTTGART      PTSUNNY   81  68  65 MISG      30.04F
MONTICELLO     PTSUNNY   83  69  62 S6        30.03F HX  86

$$





USA.gov is the U.S. government's official web portal to all federal, state and local government web resources and services.